Regional Weather Roundup
Issued by NWS Newport/Morehead, NC

Home | Current Version | Previous Version | Text Only | Print | Product List | Glossary On
Versions: 1 2 3 4 5 6 7 8 9 10 11 12 13 14 15 16 17 18 19 20 21 22 23 24 25 26 27 28 29 30 31 32 33 34 35 36 37 38 39 40 41 42 43 44 45 46 47 48 49 50
376
ASUS42 KMHX 260825
RWRMHX
WEATHER ROUNDUP FOR EASTERN NORTH CAROLINA
NATIONAL WEATHER SERVICE NEWPORT/MOREHEAD CITY NC
400 AM EDT FRI MAY 26 2017

NOTE: "FAIR" INDICATES FEW OR NO CLOUDS BELOW 12,000 FEET
WITH NO SIGNIFICANT WEATHER AND/OR OBSTRUCTIONS TO VISIBILITY

NCZ015>017-031-032-045>047-102-103-260900-
NORTH COAST

CITY           SKY/WX    TMP DP  RH WIND       PRES   REMARKS
EDENTON        CLEAR     67  57  69 W14G23    29.75R
ELIZABETH CITY CLEAR     64  56  75 SW14      29.72R
KITTY HAWK     SUNNY     67  55  64 W15G23    29.71F
MANTEO         CLEAR     66  56  68 W20G26    29.74S

$$

NCZ045>047-081-094-103-104-260900-
CENTRAL COAST

CITY           SKY/WX    TMP DP  RH WIND       PRES   REMARKS
FRISCO         CLEAR     71  56  58 W15G28    29.78R

$$

NCZ095-097-098-100-101-260900-
SOUTHERN COAST

CITY           SKY/WX    TMP DP  RH WIND       PRES   REMARKS
BEAUFORT       CLEAR     69  57  65 W15       29.82R
CEDAR ISLAND   NOT AVBL
JACKSONVILLE   CLEAR     63  55  75 W9        29.83R
PINEY ISLAND   SUNNY    N/A N/A N/A W18G25    29.80R
WILMINGTON     CLEAR     65  54  67 W12       29.86R


$$

NCZ011>013-027>030-043-044-078>080-089-090>093-098-260900-
COASTAL PLAIN

CITY           SKY/WX    TMP DP  RH WIND       PRES   REMARKS
AHOSKIE          N/A     59  55  86 CALM      29.75R
CLINTON        CLEAR     62  55  80 SW5       29.85R
ELIZABETHTOWN  CLEAR     64  53  67 SW8       29.86R
GOLDSBORO      CLEAR     63  58  82 SW12      29.80R
GREENVILLE     CLEAR     63  54  72 W12       29.81R
HAVELOCK       CLEAR     66  53  63 W16       29.83R
KENANSVILLE    CLEAR     63  54  72 SW10G16   29.84R
KINSTON        CLEAR     63  54  71 CALM      29.82R
NEW BERN       CLEAR     65  54  67 SW10      29.82R
RICHLANDS      CLEAR     61  55  81 SW8       29.84R
ROCKY MOUNT    CLEAR     61  55  81 SW8       29.79R
WASHINGTON     CLEAR     64  54  71 SW12      29.78R
WHITEVILLE     CLEAR     64  53  68 SW6       29.87R

$$

AMZ130-135-150-152-154-156-158-170-250-252-270-ANZ085-086-088-633-658-670-260900-
MARINE OBSERVATIONS

STATION/POSITION TIME  TEMP    WIND        PRES    WAVE   SWELL
                       AIR SEA DIR/SP/G            HT/PER HT/PER
                 (UTC) (F)     (DEG/KT/KT) (MB)    (FT/S) (FT/S)
CHESAPEAKE LIGHT NOT AVBL
64 E VA BEACH    0750   66 63  250/ 19/ 23 1005.5    7/ 8
DUCK             0800   68 62  250/ 20/ 29 1006.1
2 E DUCK         0800      62                N/A     2/10
OREGON INLET     0800   68 71  240/ 21/ 26 1006.7
13E OREGON INLT  0748      65                N/A     6/ 8   3/ 8
HATTERAS CG      0800   70 73  250/ 16/ 25 1008.1
DIAMOND BUOY     0750   73 78  270/ 29/ 33 1007.8    9/ 8   3/13
CAPE LOOKOUT     0800   71     260/ 21/ 27 1009.5
BEAUFORT LAB     0800   69 70  260/  9/ 12 1009.1
30 SE NEW RVR IN 0808   72 75  270/ 23/ 29 1010.5
30 SE NEW RVR IN 0813      75                N/A     9/ 8
27 SE WRIGHTSVLE 0808   73 75  250/ 21/ 31 1010.2
5 SE WRIGHTSVLE  0808   70 73  260/ 16/ 25 1011.2
225 S CAPE HAT   0750   76 76  260/ 19/ 23 1013.3    9/ 9   5/ 9
41 SE CHARLESTON 0810   74 74  270/ 17/ 21 1012.9

$$




USA.gov is the U.S. government's official web portal to all federal, state and local government web resources and services.